Location: Observatory
(52.1446°N, 0.4624°W)
Time: 06:22:55
(UTC+00:00)

ISS - Pass Details

Date: 07 December 2017
Orbit: 403 x 407 km, 51.6° (Epoch: 12 December)

Event Time Altitude Azimuth Distance (km) Brightness Sun altitude
Rises 17:23:24 0° 264° (W) 2,330 1.7 -13.3°
Reaches altitude 10° 17:25:29 10° 263° (W) 1,469 0.3 -13.6°
Maximum altitude 17:28:47 83° 177° (S) 415 -3.8 -14.1°
Enters shadow 17:30:21 29° 91° (E) 786 -2.9 -14.3°
